Location: Buckner Creek
(38.1834°N, 99.5643°W)
Time: 08:52:08
(UTC+00:00)

Daily predictions for brighter satellites

Satellite Brightness Start Highest point End
(mag) Time Altitude Azimuth Time Altitude Azimuth Time Altitude Azimuth
SL-19 R/B 4.2 12:01:11 10° N 12:03:47 33° WNW 12:06:30 10° SW
H-2A R/B 4.2 12:00:37 10° NNE 12:04:38 37° E 12:08:30 10° SSE
deb Chang Zheng 4 4.3 12:04:52 10° N 12:08:34 29° WNW 12:12:16 10° SW
Cosmos 2292 Rocket 3.7 12:05:38 10° S 12:08:38 55° E 12:12:12 10° NNE
ERS-2 3.5 12:05:58 10° SW 12:08:40 20° W 12:10:47 13° NW
CZ-4B R/B 2.6 12:06:35 10° SSW 12:09:24 23° W 12:12:13 10° NW
Meteor 1-31 Rocket 3.6 12:08:01 10° NNW 12:11:26 28° WNW 12:14:48 10° SW
Cosmos 2082 Rocket 3.4 12:09:55 12° W 12:13:33 21° NW 12:17:47 10° N
Cosmos 1190 Rocket 4.0 12:08:29 10° SSW 12:13:44 82° WNW 12:18:59 10° NNE
Cosmos 1703 4.0 12:13:17 10° S 12:17:05 58° E 12:20:55 10° NNE
Okean 1-7 Rocket 4.3 12:15:32 10° SW 12:19:35 31° WNW 12:23:38 10° NNW
CREW DRAGON DEMO-1 DEB 4.1 12:16:51 10° NW 12:19:39 34° NNE 12:22:26 10° ESE
Cosmos 2058 Rocket 3.6 12:16:15 10° NNW 12:20:22 36° W 12:24:25 10° SSW
CZ-3 R/B 3.3 12:01:07 10° W 12:21:51 49° SSW 12:27:59 10° ESE
PSLV R/B 4.2 12:21:11 10° S 12:25:16 51° W 12:29:23 10° NNW
ALOS 3.6 12:22:41 10° NNW 12:25:57 19° WNW 12:29:14 10° WSW
SL-16 R/B 2.6 12:20:31 10° NNW 12:26:11 68° ENE 12:31:49 10° SSE
Cosmos 2098 Rocket 3.7 12:21:23 10° SSW 12:27:30 65° W 12:32:24 10° N
CZ-4B R/B 3.6 12:27:02 10° N 12:30:45 33° WNW 12:34:36 10° SW
PSLV R/B 3.9 12:27:09 10° N 12:31:16 78° WNW 12:35:20 10° SSW
Cosmos 1140 Rocket 3.6 12:28:28 10° SW 12:33:27 52° WNW 12:38:27 10° N
Envisat 3.4 12:29:24 10° NNE 12:34:29 72° ESE 12:39:32 10° S
Cosmos 407 Rocket 3.9 12:29:42 10° SW 12:34:30 40° WNW 12:39:22 10° N
S3M 4.1 12:28:49 10° N 12:35:10 82° W 12:41:32 10° S
Cosmos 2266 Rocket 4.0 12:29:35 10° S 12:35:37 88° E 12:41:43 10° N
Cosmos 1697 Rocket 4.4 12:33:42 10° WNW 12:35:59 13° W 12:38:15 10° WSW
Cosmos 1655 Rocket 4.0 12:30:44 10° SSW 12:36:58 71° W 12:43:20 10° N
ATLAS 5 CENTAUR R/B 4.2 12:22:04 10° SSW 12:41:11 71° SE 12:45:52 10° NE
